Location: La Pernelle
(49.6188°N, 1.2999°W)
Time: 11:24:08
(UTC+00:00)

Cosmos 389 Rocket - Pass Details

Date: 12 June 2021
Orbit: 440 x 471 km, 81.1° (Epoch: 27 July)

Event Time Altitude Azimuth Distance (km) Brightness Sun altitude
Rises 22:35:53 0° 358° (N) 2,445 7.6 -14.5°
Reaches altitude 10° 22:38:15 10° 14° (NNE) 1,570 6.0 -14.6°
Maximum altitude 22:41:03 23° 69° (ENE) 992 4.1 -14.8°
Enters shadow 22:42:36 17° 107° (ESE) 1,199 4.2 -14.9°
